Location: Slanting_Bridge
(35.6330°N, 80.9830°W)
Time: 08:45:39
(UTC-04:00)

Hamsat - Visible Passes

Search period start: 19 October 2017 00:00
Search period end: 29 October 2017 00:00
Orbit: 584 x 619 km, 97.7° (Epoch: 18 October)

Date Brightness Start Highest point End Pass type
(mag) Time Alt. Az. Time Alt. Az. Time Alt. Az.
19 Oct ? 05:20:44 10° NNE 05:22:08 21° NNE 05:22:08 21° NNE visible
20 Oct ? 05:32:23 10° N 05:33:42 20° N 05:33:42 20° N visible
21 Oct ? 05:44:07 10° N 05:45:17 18° N 05:45:17 18° N visible
22 Oct ? 05:55:56 10° N 05:56:51 15° NNW 05:56:51 15° NNW visible
23 Oct ? 06:07:50 10° NNW 06:08:26 13° NNW 06:08:26 13° NNW visible
24 Oct ? 06:19:53 10° NNW 06:20:00 10° NNW 06:20:00 10° NNW visible
